EHI
41 51 72 74 51 22 3 0 0 0 0 0 0 1 4 11 21 32 38 30 13 2 0 0 0 0 0 0 0 1 1 1 1 2 3 4 7 9 11 10 6 2 0
55 62 77 77 52 22 4 0 0 0 0 0 0 0 2 5 13 20 22 16 7 1 0 0 0 0 0 0 0 0 0 0 0 1 1 2 3 5 8 10 8 3 0
62 61 69 73 53 25 5 0 0 0 0 0 0 0 0 3 9 12 10 5 2 0 0 0 0 0 0 0 0 0 0 0 0 0 0 0 0 1 3 6 5 2 0
44 41 53 65 55 30 9 1 0 0 0 1 2 4 5 8 14 16 11 4 1 0 0 0 0 0 0 0 0 0 0 0 0 0 0 0 0 0 0 1 1 0 0
24 28 47 64 59 36 14 3 1 2 4 9 15 18 20 22 23 20 12 4 1 1 0 0 0 0 0 0 0 0 0 0 0 0 0 0 0 0 0 0 0 0 0
25 30 43 61 61 38 15 5 3 5 12 24 36 42 43 39 30 21 10 3 0 0 0 0 0 0 0 0 0 0 0 0 0 0 1 2 1 1 2 1 0 0 0
47 39 39 52 53 32 13 4 3 7 18 36 53 61 60 48 31 16 6 1 0 0 0 0 0 0 0 0 0 0 0 0 0 1 3 5 4 5 5 4 2 0 0
71 52 36 38 36 20 8 3 3 6 18 37 55 63 59 43 24 9 2 0 0 0 0 0 0 0 0 0 0 0 0 0 0 1 3 7 12 15 12 6 3 1 0
81 58 29 20 18 10 5 4 4 6 16 31 42 44 38 26 13 4 0 0 0 0 0 0 0 0 0 0 0 0 0 0 0 1 4 12 25 29 18 7 3 1 0
82 59 24 7 7 4 2 3 5 7 12 19 21 18 13 8 3 1 5 8 6 2 1 0 0 0 0 0 0 1 1 1 1 3 8 18 32 32 20 8 3 1 0
84 65 29 6 3 1 1 3 4 4 5 6 5 3 1 0 0 4 20 33 23 8 3 1 0 0 0 0 1 2 2 1 3 7 13 20 28 25 16 8 4 1 0
82 71 43 19 8 3 5 8 5 1 1 1 1 2 1 0 4 18 43 53 36 15 5 1 0 0 0 0 1 1 1 0 4 10 14 18 21 19 12 7 4 2 1
70 68 61 46 26 14 18 20 8 3 4 3 5 8 5 2 11 33 52 49 30 11 3 1 1 0 0 0 0 0 0 1 4 8 10 13 17 15 10 5 4 4 3
60 58 67 72 53 36 40 36 16 9 13 11 14 19 14 8 15 31 42 34 17 7 4 3 2 2 1 0 0 0 0 1 3 4 5 9 13 13 7 4 4 6 7
67 60 70 84 76 63 64 57 31 22 28 31 35 39 30 21 23 33 42 39 27 22 18 12 9 8 4 2 1 0 0 0 1 1 3 6 11 11 9 7 8 8 10
84 79 81 91 91 85 83 76 54 41 46 53 61 64 54 46 49 56 62 59 53 49 44 31 22 16 10 6 4 2 1 1 1 1 1 3 6 9 10 10 9 8 9
97 95 94 97 98 97 93 88 73 58 60 71 79 82 77 74 78 81 79 73 65 62 60 49 35 24 17 14 13 9 5 4 3 2 1 0 1 4 5 6 5 5 5
100 99 99 99 100 99 98 94 81 71 74 83 86 86 84 84 86 86 81 73 64 59 55 46 35 27 21 20 18 13 9 7 5 2 0 0 0 1 1 1 1 1 2
100 100 100 100 100 100 100 96 86 82 85 85 81 77 73 71 74 76 73 67 59 51 40 29 25 22 18 16 13 9 7 5 3 2 0 0 0 0 0 0 0 0 0
99 100 100 100 100 100 100 97 93 89 84 76 68 61 54 50 54 59 58 53 45 37 26 17 14 13 10 7 4 3 2 1 1 1 0 0 0 0 0 0 0 0 0
99 100 100 100 100 100 100 99 96 88 75 61 50 42 35 31 34 39 39 34 27 20 14 9 6 5 4 2 1 0 0 0 0 0 0 0 0 0 0 0 0 0 0
99 100 100 100 100 100 99 96 89 76 61 45 34 26 20 18 18 19 20 18 13 9 5 3 1 1 1 0 0 0 0 0 0 0 0 0 0 0 0 0 0 0 0
98 99 100 100 99 98 94 87 76 61 45 32 23 15 11 9 6 6 6 6 4 2 1 0 0 0 0 0 0 0 0 0 0 0 0 0 0 0 0 0 0 0 0
95 97 99 98 96 93 88 80 67 52 37 25 15 9 6 3 1 1 1 1 1 0 0 0 0 0 0 0 0 0 0 0 0 0 0 0 0 0 0 0 0 0 0
90 92 94 92 89 85 81 73 59 44 29 17 9 5 2 1 0 0 0 0 0 0 0 0 0 0 0 0 0 0 0 0 0 0 0 0 0 0 0 0 0 0 0
85 87 88 87 83 80 75 66 50 34 21 11 5 3 1 0 0 0 0 0 0 0 0 0 0 0 0 0 0 0 0 0 0 0 0 0 0 0 0 0 0 0 0
Wind_Speed
19 19 19 16 13 12 13 13 14 14 13 12 11 10 10 11 11 12 12 13 12 12 12 11 10 10 9 9 10 10 9 9 10 10 11 11 11 10 9 8 8 12 12
22 19 19 17 14 13 13 14 14 14 13 12 11 10 10 10 11 11 12 12 12 12 11 10 9 9 8 8 7 7 6 5 6 6 9 10 10 9 9 10 13 10 11
21 19 18 16 14 13 14 14 14 14 13 13 12 10 10 10 11 11 11 11 11 11 11 10 9 8 7 6 5 4 3 1 2 3 5 6 8 9 10 12 13 12 10
21 17 16 17 15 14 14 14 14 14 14 13 12 11 11 11 10 10 11 11 11 10 10 9 8 7 6 5 4 2 1 3 3 4 4 1 6 10 9 10 10 10 8
19 17 18 17 16 15 15 15 14 14 14 13 12 11 11 10 10 10 10 10 10 9 9 8 7 6 5 4 2 1 3 5 7 7 1 2 6 10 9 9 8 8 7
20 19 18 17 17 16 15 15 15 14 14 13 12 11 11 10 9 9 9 9 9 8 8 7 6 5 3 2 2 3 5 7 8 5 2 5 8 10 10 8 7 6 5
19 19 17 17 16 16 15 15 14 14 13 13 12 11 10 10 9 8 8 8 8 7 7 6 5 4 2 2 3 5 7 8 6 4 3 5 9 11 10 8 6 5 4
20 19 17 17 17 16 15 14 13 13 12 12 12 11 10 9 8 7 7 7 7 6 6 5 4 3 1 1 4 6 8 10 5 1 5 7 11 11 10 7 6 5 4
20 19 16 15 14 15 14 13 13 12 12 12 11 11 10 9 8 7 7 6 6 6 5 5 4 2 1 3 5 7 9 10 7 1 7 7 11 12 10 8 6 5 4
19 18 15 15 14 13 12 13 13 12 12 12 11 11 10 9 8 8 8 7 7 6 6 5 4 3 4 5 7 8 10 9 6 4 6 7 11 12 10 8 7 6 5
17 17 15 15 14 13 13 13 13 12 11 11 10 10 9 7 8 8 9 11 9 7 7 6 6 6 7 8 10 10 9 5 1 7 6 9 10 10 9 7 6 6 5
16 18 16 16 15 14 12 11 9 9 9 8 8 9 7 6 6 7 11 13 10 9 8 9 9 9 8 6 8 9 5 6 3 7 6 10 10 10 8 6 5 5 5
15 14 17 16 14 13 10 11 7 7 8 8 8 9 6 4 3 5 5 7 7 8 7 8 8 7 7 4 3 5 5 1 5 7 7 9 9 8 7 5 4 4 4
16 15 16 16 13 12 11 10 8 7 8 7 7 9 6 3 2 4 3 5 5 5 5 5 6 6 4 2 3 2 1 3 6 6 6 9 8 7 6 4 3 2 3
17 14 14 14 12 7 6 8 8 6 8 8 7 7 6 4 3 3 2 2 2 2 3 3 3 1 1 1 2 2 5 6 6 7 6 9 9 8 6 5 3 2 1
16 13 11 12 12 7 5 4 5 5 5 6 6 8 6 3 3 3 2 1 1 2 1 0 1 2 0 1 2 5 6 6 6 6 6 7 10 10 9 7 6 5 4
15 13 11 11 12 9 8 6 4 4 6 5 6 7 6 5 5 4 3 2 1 1 2 2 3 2 1 2 4 5 5 6 6 5 3 4 6 8 9 8 8 6 5
15 13 12 13 14 10 8 7 4 4 6 6 6 7 7 7 7 4 3 2 1 1 2 2 3 3 3 4 4 4 4 3 4 3 3 2 3 5 6 7 7 5 4
15 14 12 11 13 13 9 7 5 5 6 6 6 7 7 7 7 6 4 3 2 3 3 2 3 3 4 4 3 2 2 2 2 2 2 2 2 2 4 6 6 4 3
14 14 12 10 11 12 9 6 5 6 6 6 6 7 8 6 6 5 4 4 3 3 3 4 4 4 3 3 3 2 1 1 0 1 1 1 1 0 1 3 4 5 6
14 14 12 11 11 10 8 8 7 6 6 6 6 7 6 6 6 5 4 4 3 3 4 5 4 3 3 2 1 1 2 2 3 2 1 1 1 0 0 1 2 0 3
13 13 13 11 11 10 8 6 5 7 6 6 5 6 6 6 6 5 5 4 4 4 5 4 3 2 2 1 0 1 2 2 1 2 2 2 2 1 2 3 1 1 2
10 13 13 12 11 10 9 8 8 6 5 4 5 4 5 6 6 5 5 5 4 4 4 4 3 3 2 1 1 1 1 2 3 1 2 3 2 2 2 2 3 3 3
3 8 11 12 11 10 11 10 12 8 6 5 5 5 7 7 7 6 7 6 5 5 5 4 3 2 3 2 1 1 1 1 1 3 2 3 3 3 4 4 4 3 3
11 7 9 11 11 10 9 10 9 8 7 7 8 9 8 8 8 8 8 7 6 6 6 5 4 4 3 3 1 0 1 1 2 2 4 3 2 3 3 3 3 3 3
13 12 12 13 12 10 9 8 9 11 11 11 10 9 8 6 6 8 8 7 6 6 5 4 4 6 5 4 3 3 3 2 2 2 3 4 4 4 4 3 3 4 3
Wind_Direction
120 128 124 119 117 121 131 135 134 131 127 122 116 111 105 100 98 97 98 100 101 101 100 96 92 86 80 75 72 71 71 74 78 85 92 94 91 87 82 79 103 89 92
123 126 123 120 118 121 132 136 136 134 132 130 126 123 117 111 106 105 105 105 106 105 103 100 96 92 87 83 80 78 79 86 98 110 117 111 103 93 76 59 77 99 95
121 126 125 121 120 122 131 137 138 138 139 137 134 131 125 117 112 110 109 108 108 107 106 103 98 92 88 86 84 81 78 93 132 158 173 134 115 100 87 83 90 99 96
124 132 128 125 122 123 129 135 139 141 142 140 138 134 128 123 118 115 113 111 110 109 107 103 98 93 89 86 81 68 331 290 275 257 234 188 125 111 100 94 96 99 100
129 130 127 130 125 125 128 134 138 141 142 140 138 136 132 128 123 119 117 114 112 111 109 104 99 94 88 80 60 356 306 297 296 280 288 90 108 121 111 106 103 102 101
131 128 133 132 129 128 129 134 138 140 141 141 139 137 134 130 126 123 121 119 117 116 113 108 103 98 85 61 8 327 309 306 304 294 52 143 122 124 120 116 114 111 109
132 129 136 135 133 132 133 135 138 140 141 140 139 137 134 132 129 128 128 126 123 122 118 114 111 104 81 21 335 318 310 311 290 336 16 109 118 124 119 116 116 121 127
129 130 136 137 138 138 139 139 139 140 140 139 139 138 137 135 134 134 134 132 129 127 125 123 124 120 96 325 311 306 306 304 296 11 123 118 123 118 114 114 116 125 136
132 132 144 144 143 143 142 142 141 139 139 138 139 140 142 144 145 146 143 140 137 137 138 139 146 158 216 271 284 289 293 297 297 191 129 117 121 115 113 116 122 129 138
134 137 149 153 153 154 151 149 146 143 141 141 144 150 153 156 162 164 162 155 149 150 153 156 167 197 232 251 260 269 280 294 285 87 95 107 114 115 117 121 127 133 141
137 141 153 157 160 165 163 156 152 149 147 149 156 163 168 184 183 183 189 154 158 161 164 171 190 215 234 243 250 258 272 264 214 96 95 116 120 121 124 128 135 143 151
148 150 159 162 164 173 167 152 165 169 162 181 176 174 194 211 196 181 153 154 163 170 179 192 206 221 234 237 237 244 255 250 148 109 116 137 131 129 133 140 150 159 167
159 163 162 165 168 174 160 155 173 179 164 193 186 173 195 205 187 140 148 156 169 183 197 197 212 226 225 227 224 210 234 275 95 103 115 123 121 127 135 146 161 175 184
165 176 165 164 168 175 163 162 171 176 163 180 177 173 182 187 180 153 175 175 185 196 206 194 221 218 225 222 262 268 315 61 96 100 105 107 106 112 122 134 156 181 200
167 178 169 165 161 170 151 158 169 171 162 167 163 167 164 169 180 157 169 174 206 172 174 238 243 148 103 251 293 3 33 48 74 92 101 96 97 96 95 88 75 51 10
165 173 170 159 152 156 146 153 149 157 143 147 143 153 161 152 136 113 109 91 7 26 65 265 313 109 114 356 14 38 39 39 53 73 104 102 93 91 86 80 70 60 47
161 164 160 156 153 157 161 169 155 153 139 130 125 130 135 120 112 108 105 97 40 13 11 26 359 25 72 39 44 45 43 39 37 40 67 121 115 97 93 88 80 68 54
160 159 162 170 160 160 166 167 164 155 134 121 114 116 116 112 113 115 111 109 107 72 44 33 12 24 34 44 46 36 40 34 30 21 5 43 105 116 112 110 102 93 80
156 156 163 167 161 164 163 156 153 137 116 113 116 117 118 119 126 127 125 125 110 93 74 63 44 33 45 36 36 41 26 36 17 348 17 19 72 106 129 139 138 136 127
154 154 159 162 156 155 157 147 148 125 114 109 108 115 120 124 126 124 120 121 121 112 95 81 78 57 52 31 2 5 332 360 316 349 339 348 56 224 158 144 171 180 188
151 154 159 167 157 156 159 161 158 140 120 110 106 111 109 110 108 105 111 109 106 108 108 103 94 82 65 28 1 296 256 226 219 196 232 293 296 272 332 264 247 190 182
153 156 160 163 162 164 160 151 137 122 115 113 106 95 96 102 102 103 109 114 112 111 112 113 110 112 87 85 83 310 312 276 225 219 202 210 228 232 266 275 265 241 247
158 162 167 165 161 161 142 125 119 109 109 108 108 93 81 89 94 100 109 111 112 118 122 118 122 133 141 116 66 65 359 329 353 271 237 241 223 213 252 279 276 261 257
93 149 147 147 146 142 134 142 146 147 141 126 113 97 85 79 85 91 94 96 98 97 101 104 98 102 108 107 106 121 140 98 321 323 291 262 240 236 242 258 270 282 277
36 73 115 118 117 123 128 139 136 128 116 110 104 97 86 77 76 82 88 89 90 89 88 85 80 72 70 65 52 61 209 207 219 255 295 315 305 272 255 246 249 253 253
42 55 80 93 95 99 110 118 121 121 118 115 108 103 92 85 83 84 88 89 89 89 88 85 76 70 64 57 41 29 20 1 343 321 308 314 309 313 322 316 291 268 258